Time,TemperatureF,DewpointF,PressureIn,WindDirection,WindDirectionDegrees,WindSpeedMPH,WindSpeedGustMPH,Humidity,HourlyPrecipIn,Conditions,Clouds,dailyrainin,SoftwareType,DateUTC
2013-02-15 00:00:00,31.5,15.4,30.36,SE,130,0.0,0.0,51,0.00,,SKC,0.00,VWS V14.01,2013-02-15 08:00:00,
2013-02-15 00:05:00,30.7,15.2,30.36,SE,130,0.0,0.0,52,0.00,,SKC,0.00,VWS V14.01,2013-02-15 08:05:00,
2013-02-15 00:10:00,30.2,15.6,30.36,SE,130,0.0,0.0,54,0.00,,SKC,0.00,VWS V14.01,2013-02-15 08:10:00,
2013-02-15 00:15:00,30.0,15.8,30.36,SE,130,0.0,0.0,55,0.00,,SKC,0.00,VWS V14.01,2013-02-15 08:15:00,
2013-02-15 00:20:00,29.8,16.1,30.36,SE,130,0.0,0.0,56,0.00,,SKC,0.00,VWS V14.01,2013-02-15 08:20:00,
2013-02-15 00:25:00,29.3,15.6,30.36,SE,130,0.0,0.0,56,0.00,,SKC,0.00,VWS V14.01,2013-02-15 08:25:00,
2013-02-15 00:30:00,28.4,14.7,30.36,SE,130,0.0,0.0,56,0.00,,SKC,0.00,VWS V14.01,2013-02-15 08:30:00,
2013-02-15 00:35:00,28.0,14.4,30.36,SE,130,0.0,0.0,56,0.00,,SKC,0.00,VWS V14.01,2013-02-15 08:35:00,
2013-02-15 00:40:00,27.9,15.4,30.36,SE,130,0.0,0.0,59,0.00,,SKC,0.00,VWS V14.01,2013-02-15 08:40:00,
2013-02-15 00:45:00,27.7,15.2,30.36,SE,130,0.0,0.0,59,0.00,,SKC,0.00,VWS V14.01,2013-02-15 08:45:00,
2013-02-15 00:50:00,27.3,15.7,30.36,SE,130,0.0,0.0,61,0.00,,SKC,0.00,VWS V14.01,2013-02-15 08:50:00,
2013-02-15 00:55:00,27.3,16.0,30.36,SE,130,0.0,0.0,62,0.00,,SKC,0.00,VWS V14.01,2013-02-15 08:55:00,
2013-02-15 01:00:00,27.3,16.4,30.36,SE,130,0.0,0.0,63,0.00,,SKC,0.00,VWS V14.01,2013-02-15 09:00:00,
2013-02-15 01:05:00,27.1,16.2,30.36,SE,130,0.0,0.0,63,0.00,,SKC,0.00,VWS V14.01,2013-02-15 09:05:00,
2013-02-15 01:10:00,26.8,15.9,30.36,SE,130,0.0,0.0,63,0.00,,SKC,0.00,VWS V14.01,2013-02-15 09:10:00,
2013-02-15 01:15:00,26.2,15.4,30.36,SE,130,0.0,0.0,63,0.00,,SKC,0.00,VWS V14.01,2013-02-15 09:15:00,
2013-02-15 01:20:00,25.9,15.0,30.36,SE,130,0.0,0.0,63,0.00,,SKC,0.00,VWS V14.01,2013-02-15 09:20:00,
2013-02-15 01:25:00,25.7,14.9,30.36,SE,130,0.0,0.0,63,0.00,,SKC,0.00,VWS V14.01,2013-02-15 09:25:00,
2013-02-15 01:30:00,25.7,15.6,30.36,SE,130,0.0,0.0,65,0.00,,SKC,0.00,VWS V14.01,2013-02-15 09:30:00,
2013-02-15 01:35:00,25.9,17.1,30.36,SE,130,0.0,0.0,69,0.00,,SKC,0.00,VWS V14.01,2013-02-15 09:35:00,
2013-02-15 01:40:00,25.9,17.5,30.36,SE,130,0.0,0.0,70,0.00,,SKC,0.00,VWS V14.01,2013-02-15 09:40:00,
2013-02-15 01:45:00,25.9,17.5,30.36,SE,130,0.0,0.0,70,0.00,,SKC,0.00,VWS V14.01,2013-02-15 09:45:00,
2013-02-15 01:50:00,25.5,16.8,30.36,SE,130,0.0,0.0,69,0.00,,SKC,0.00,VWS V14.01,2013-02-15 09:50:00,
2013-02-15 01:55:00,25.2,16.4,30.36,SE,130,0.0,0.0,69,0.00,,SKC,0.00,VWS V14.01,2013-02-15 09:55:00,
2013-02-15 02:00:00,24.8,16.1,30.36,SE,130,0.0,0.0,69,0.00,,SKC,0.00,VWS V14.01,2013-02-15 10:00:00,
2013-02-15 02:05:00,24.8,16.8,30.36,SE,130,0.0,0.0,71,0.00,,SKC,0.00,VWS V14.01,2013-02-15 10:05:00,
2013-02-15 02:10:00,24.6,16.6,30.36,SE,130,0.0,0.0,71,0.00,,SKC,0.00,VWS V14.01,2013-02-15 10:10:00,
2013-02-15 02:15:00,24.8,17.7,30.36,SE,130,0.0,0.0,74,0.00,,SKC,0.00,VWS V14.01,2013-02-15 10:15:00,
2013-02-15 02:20:00,24.8,17.7,30.36,SE,130,0.0,0.0,74,0.00,,SKC,0.00,VWS V14.01,2013-02-15 10:20:00,
2013-02-15 02:25:00,25.2,18.7,30.36,SE,130,0.0,0.0,76,0.00,,SKC,0.00,VWS V14.01,2013-02-15 10:25:00,
2013-02-15 02:29:00,25.3,18.5,30.36,SE,130,0.0,0.0,75,0.00,,SKC,0.00,VWS V14.01,2013-02-15 10:29:00,
2013-02-15 02:34:00,25.3,18.2,30.36,SE,130,0.0,0.0,74,0.00,,SKC,0.00,VWS V14.01,2013-02-15 10:34:00,
2013-02-15 02:39:00,25.7,18.9,30.36,SE,130,0.0,0.0,75,0.00,,SKC,0.00,VWS V14.01,2013-02-15 10:39:00,
2013-02-15 02:44:00,26.2,19.7,30.36,SE,127,2.2,2.7,76,0.00,,SKC,0.00,VWS V14.01,2013-02-15 10:44:00,
2013-02-15 02:49:00,26.4,19.6,30.36,SE,127,2.2,2.2,75,0.00,,SKC,0.00,VWS V14.01,2013-02-15 10:49:00,
2013-02-15 02:54:00,26.6,19.4,30.36,SE,127,2.7,2.7,74,0.00,,SKC,0.00,VWS V14.01,2013-02-15 10:54:00,
2013-02-15 02:59:00,27.0,19.8,30.36,SE,130,3.6,3.6,74,0.00,,SKC,0.00,VWS V14.01,2013-02-15 10:59:00,
2013-02-15 03:04:00,27.0,19.5,30.36,SE,130,2.7,4.0,73,0.00,,SKC,0.00,VWS V14.01,2013-02-15 11:04:00,
2013-02-15 03:09:00,27.1,19.0,30.36,SE,128,3.1,3.6,71,0.00,,SKC,0.00,VWS V14.01,2013-02-15 11:09:00,
2013-02-15 03:14:00,27.3,19.2,30.36,SE,128,2.7,3.1,71,0.00,,SKC,0.00,VWS V14.01,2013-02-15 11:14:00,
2013-02-15 03:19:00,27.1,18.7,30.36,SE,128,0.0,2.7,70,0.00,,SKC,0.00,VWS V14.01,2013-02-15 11:19:00,
2013-02-15 03:24:00,26.8,18.0,30.36,SE,128,0.0,0.0,69,0.00,,SKC,0.00,VWS V14.01,2013-02-15 11:24:00,
2013-02-15 03:29:00,26.4,17.6,30.36,SE,128,0.0,0.0,69,0.00,,SKC,0.00,VWS V14.01,2013-02-15 11:29:00,
2013-02-15 03:34:00,26.1,17.3,30.36,SE,128,0.0,0.0,69,0.00,,SKC,0.00,VWS V14.01,2013-02-15 11:34:00,
2013-02-15 03:39:00,25.9,16.8,30.36,SE,128,0.0,0.0,68,0.00,,SKC,0.00,VWS V14.01,2013-02-15 11:39:00,
2013-02-15 03:44:00,25.3,16.3,30.36,SE,128,0.0,0.0,68,0.00,,SKC,0.00,VWS V14.01,2013-02-15 11:44:00,
2013-02-15 03:49:00,25.2,16.1,30.36,SE,128,2.7,2.7,68,0.00,,SKC,0.00,VWS V14.01,2013-02-15 11:49:00,
2013-02-15 03:54:00,25.3,16.6,30.36,SE,128,2.7,3.1,69,0.00,,SKC,0.00,VWS V14.01,2013-02-15 11:54:00,
2013-02-15 03:59:00,25.5,17.1,30.36,SE,128,2.7,3.6,70,0.00,,SKC,0.00,VWS V14.01,2013-02-15 11:59:00,
2013-02-15 04:04:00,25.9,17.8,30.36,SE,128,3.1,3.1,71,0.00,,SKC,0.00,VWS V14.01,2013-02-15 12:04:00,
2013-02-15 04:09:00,26.1,18.0,30.36,SE,128,0.0,0.0,71,0.00,,SKC,0.00,VWS V14.01,2013-02-15 12:09:00,
2013-02-15 04:14:00,26.6,19.1,30.36,SE,126,0.0,0.0,73,0.00,,SKC,0.00,VWS V14.01,2013-02-15 12:14:00,
2013-02-15 04:19:00,27.0,19.1,30.36,SE,126,0.0,0.0,72,0.00,,SKC,0.00,VWS V14.01,2013-02-15 12:19:00,
2013-02-15 04:24:00,27.0,18.5,30.39,SE,125,3.1,3.6,70,0.00,,SKC,0.00,VWS V14.01,2013-02-15 12:24:00,
2013-02-15 04:29:00,27.5,18.3,30.39,SE,124,4.0,5.8,68,0.00,,SKC,0.00,VWS V14.01,2013-02-15 12:29:00,
2013-02-15 04:34:00,27.9,17.3,30.39,SE,133,5.8,5.8,64,0.00,,SKC,0.00,VWS V14.01,2013-02-15 12:34:00,
2013-02-15 04:39:00,28.0,16.3,30.39,SE,130,5.8,5.8,61,0.00,,SKC,0.00,VWS V14.01,2013-02-15 12:39:00,
2013-02-15 04:44:00,27.9,16.2,30.39,SE,128,3.6,3.6,61,0.00,,SKC,0.00,VWS V14.01,2013-02-15 12:44:00,
2013-02-15 04:49:00,27.9,16.5,30.39,SE,125,3.6,4.9,62,0.00,,SKC,0.00,VWS V14.01,2013-02-15 12:49:00,
2013-02-15 04:54:00,28.0,16.7,30.39,SE,131,3.6,3.6,62,0.00,,SKC,0.00,VWS V14.01,2013-02-15 12:54:00,
2013-02-15 04:59:00,27.9,16.2,30.39,SE,131,0.0,0.0,61,0.00,,SKC,0.00,VWS V14.01,2013-02-15 12:59:00,
2013-02-15 05:04:00,27.3,15.3,30.39,SE,131,0.0,0.0,60,0.00,,SKC,0.00,VWS V14.01,2013-02-15 13:04:00,
2013-02-15 05:09:00,27.0,15.3,30.39,SE,129,0.0,0.0,61,0.00,,SKC,0.00,VWS V14.01,2013-02-15 13:09:00,
2013-02-15 05:14:00,26.8,15.9,30.39,SE,129,0.0,0.0,63,0.00,,SKC,0.00,VWS V14.01,2013-02-15 13:14:00,
2013-02-15 05:19:00,25.9,14.7,30.39,West,281,0.0,0.0,62,0.00,,SKC,0.00,VWS V14.01,2013-02-15 13:19:00,
2013-02-15 05:24:00,25.2,14.4,30.39,West,281,0.0,0.0,63,0.00,,SKC,0.00,VWS V14.01,2013-02-15 13:24:00,
2013-02-15 05:29:00,24.4,14.4,30.39,WNW,290,0.0,0.0,65,0.00,,SKC,0.00,VWS V14.01,2013-02-15 13:29:00,
2013-02-15 05:34:00,23.7,13.7,30.39,WNW,290,0.0,0.0,65,0.00,,SKC,0.00,VWS V14.01,2013-02-15 13:34:00,
2013-02-15 05:39:00,23.5,13.9,30.39,WNW,290,0.0,0.0,66,0.00,,SKC,0.00,VWS V14.01,2013-02-15 13:39:00,
2013-02-15 05:44:00,23.2,14.2,30.39,WNW,290,0.0,0.0,68,0.00,,SKC,0.00,VWS V14.01,2013-02-15 13:44:00,
2013-02-15 05:49:00,22.8,14.2,30.39,WNW,290,0.0,0.0,69,0.00,,SKC,0.00,VWS V14.01,2013-02-15 13:49:00,
2013-02-15 05:54:00,22.8,15.2,30.39,WNW,290,0.0,0.0,72,0.00,,SKC,0.00,VWS V14.01,2013-02-15 13:54:00,
2013-02-15 05:59:00,22.6,15.6,30.39,WNW,290,0.0,0.0,74,0.00,,SKC,0.00,VWS V14.01,2013-02-15 13:59:00,
2013-02-15 06:04:00,22.8,16.1,30.39,WNW,290,0.0,0.0,75,0.00,,SKC,0.00,VWS V14.01,2013-02-15 14:04:00,
2013-02-15 06:09:00,22.5,15.8,30.39,WNW,290,0.0,0.0,75,0.00,,SKC,0.00,VWS V14.01,2013-02-15 14:09:00,
2013-02-15 06:14:00,22.1,15.4,30.39,WNW,290,0.0,0.0,75,0.00,,SKC,0.00,VWS V14.01,2013-02-15 14:14:00,
2013-02-15 06:19:00,21.9,15.2,30.39,WNW,290,0.0,0.0,75,0.00,,SKC,0.00,VWS V14.01,2013-02-15 14:19:00,
2013-02-15 06:24:00,21.7,15.1,30.39,WNW,290,0.0,0.0,75,0.00,,SKC,0.00,VWS V14.01,2013-02-15 14:24:00,
2013-02-15 06:29:00,21.4,14.7,30.39,WNW,290,0.0,0.0,75,0.00,,SKC,0.00,VWS V14.01,2013-02-15 14:29:00,
2013-02-15 06:34:00,21.4,15.0,30.39,WNW,290,0.0,0.0,76,0.00,,SKC,0.00,VWS V14.01,2013-02-15 14:34:00,
2013-02-15 06:39:00,21.4,15.0,30.36,WNW,290,0.0,0.0,76,0.00,,SKC,0.00,VWS V14.01,2013-02-15 14:39:00,
2013-02-15 06:44:00,21.7,15.9,30.36,East,96,0.0,0.0,78,0.00,,SKC,0.00,VWS V14.01,2013-02-15 14:44:00,
2013-02-15 06:49:00,21.9,16.4,30.36,SE,128,0.0,0.0,79,0.00,,SKC,0.00,VWS V14.01,2013-02-15 14:49:00,
2013-02-15 06:54:00,22.1,16.6,30.36,SE,127,0.0,0.0,79,0.00,,SKC,0.00,VWS V14.01,2013-02-15 14:54:00,
2013-02-15 06:59:00,21.9,16.4,30.36,SE,128,2.7,3.6,79,0.00,,SKC,0.00,VWS V14.01,2013-02-15 14:59:00,
2013-02-15 07:04:00,22.8,17.6,30.36,ESE,113,3.1,3.1,80,0.00,,SKC,0.00,VWS V14.01,2013-02-15 15:04:00,
2013-02-15 07:09:00,24.1,19.4,30.36,ESE,113,0.0,0.0,82,0.00,,SKC,0.00,VWS V14.01,2013-02-15 15:09:00,
2013-02-15 07:14:00,24.6,20.2,30.36,East,97,2.7,3.6,83,0.00,,SKC,0.00,VWS V14.01,2013-02-15 15:14:00,
2013-02-15 07:19:00,25.2,20.5,30.36,ESE,122,0.0,0.0,82,0.00,,SKC,0.00,VWS V14.01,2013-02-15 15:19:00,
2013-02-15 07:24:00,25.5,20.5,30.36,ESE,119,0.0,0.0,81,0.00,,SKC,0.00,VWS V14.01,2013-02-15 15:24:00,
2013-02-15 07:29:00,25.9,20.3,30.36,ESE,122,3.1,3.1,79,0.00,,SKC,0.00,VWS V14.01,2013-02-15 15:29:00,
2013-02-15 07:34:00,26.6,19.1,30.36,ESE,107,3.6,4.0,73,0.00,,SKC,0.00,VWS V14.01,2013-02-15 15:34:00,
2013-02-15 07:39:00,27.3,17.8,30.36,SE,142,3.6,3.6,67,0.00,,SKC,0.00,VWS V14.01,2013-02-15 15:39:00,
2013-02-15 07:44:00,28.8,18.1,30.36,SE,127,3.6,4.0,64,0.00,,SKC,0.00,VWS V14.01,2013-02-15 15:44:00,
2013-02-15 07:49:00,30.6,17.6,30.36,ESE,114,3.1,4.0,58,0.00,,SKC,0.00,VWS V14.01,2013-02-15 15:49:00,
2013-02-15 07:54:00,32.0,17.2,30.36,SE,128,2.2,2.2,54,0.00,,SKC,0.00,VWS V14.01,2013-02-15 15:54:00,
2013-02-15 07:59:00,33.4,17.7,30.36,SE,128,0.0,0.0,52,0.00,,SKC,0.00,VWS V14.01,2013-02-15 15:59:00,
2013-02-15 08:04:00,34.3,15.7,30.36,SE,135,0.0,0.0,46,0.00,,SKC,0.00,VWS V14.01,2013-02-15 16:04:00,
2013-02-15 08:09:00,35.2,16.5,30.36,SE,135,0.0,0.0,46,0.00,,SKC,0.00,VWS V14.01,2013-02-15 16:09:00,
2013-02-15 08:14:00,36.7,16.3,30.36,SE,135,0.0,0.0,43,0.00,,SKC,0.00,VWS V14.01,2013-02-15 16:14:00,
2013-02-15 08:19:00,37.4,15.3,30.36,SE,135,0.0,0.0,40,0.00,,SKC,0.00,VWS V14.01,2013-02-15 16:19:00,
2013-02-15 08:24:00,37.8,15.6,30.36,SW,230,0.0,0.0,40,0.00,,SKC,0.00,VWS V14.01,2013-02-15 16:24:00,
2013-02-15 08:29:00,37.6,16.0,30.36,NW,306,2.7,3.6,41,0.00,,SKC,0.00,VWS V14.01,2013-02-15 16:29:00,
2013-02-15 08:34:00,36.9,15.9,30.36,NW,306,0.0,0.0,42,0.00,,SKC,0.00,VWS V14.01,2013-02-15 16:34:00,
2013-02-15 08:39:00,36.3,15.4,30.36,NW,306,0.0,0.0,42,0.00,,SKC,0.00,VWS V14.01,2013-02-15 16:39:00,
2013-02-15 08:44:00,36.3,16.0,30.36,NW,306,0.0,0.0,43,0.00,,SKC,0.00,VWS V14.01,2013-02-15 16:44:00,
2013-02-15 08:49:00,37.0,16.6,30.36,NW,305,0.0,0.0,43,0.00,,SKC,0.00,VWS V14.01,2013-02-15 16:49:00,
2013-02-15 08:54:00,37.4,15.9,30.36,NW,306,0.0,0.0,41,0.00,,SKC,0.00,VWS V14.01,2013-02-15 16:54:00,
2013-02-15 08:59:00,37.9,16.4,30.36,NW,306,0.0,0.0,41,0.00,,SKC,0.00,VWS V14.01,2013-02-15 16:59:00,
2013-02-15 09:04:00,38.5,16.3,30.36,NW,305,0.0,0.0,40,0.00,,SKC,0.00,VWS V14.01,2013-02-15 17:04:00,
2013-02-15 09:09:00,38.3,16.1,30.36,NW,304,2.7,3.6,40,0.00,,SKC,0.00,VWS V14.01,2013-02-15 17:09:00,
2013-02-15 09:14:00,37.9,16.4,30.36,WNW,300,4.0,4.0,41,0.00,,SKC,0.00,VWS V14.01,2013-02-15 17:14:00,
2013-02-15 09:19:00,38.5,16.8,30.36,WNW,301,0.0,0.0,41,0.00,,SKC,0.00,VWS V14.01,2013-02-15 17:19:00,
2013-02-15 09:24:00,38.5,16.3,30.36,WNW,285,3.1,4.0,40,0.00,,SKC,0.00,VWS V14.01,2013-02-15 17:24:00,
2013-02-15 09:29:00,39.0,16.8,30.36,WNW,289,0.0,0.0,40,0.00,,SKC,0.00,VWS V14.01,2013-02-15 17:29:00,
2013-02-15 09:34:00,39.4,16.5,30.36,WNW,283,0.0,0.0,39,0.00,,SKC,0.00,VWS V14.01,2013-02-15 17:34:00,
2013-02-15 09:39:00,39.9,17.0,30.36,WNW,283,3.6,4.9,39,0.00,,SKC,0.00,VWS V14.01,2013-02-15 17:39:00,
2013-02-15 09:44:00,40.6,17.6,30.36,WNW,284,0.0,0.0,39,0.00,,SKC,0.00,VWS V14.01,2013-02-15 17:44:00,
2013-02-15 09:49:00,40.8,17.8,30.36,WNW,293,0.0,0.0,39,0.00,,SKC,0.00,VWS V14.01,2013-02-15 17:49:00,
2013-02-15 09:54:00,41.4,16.4,30.36,WNW,292,0.0,0.0,36,0.00,,SKC,0.00,VWS V14.01,2013-02-15 17:54:00,
2013-02-15 09:59:00,40.8,17.2,30.36,WNW,285,3.6,3.6,38,0.00,,SKC,0.00,VWS V14.01,2013-02-15 17:59:00,
2013-02-15 10:04:00,41.0,16.7,30.36,WNW,285,0.0,0.0,37,0.00,,SKC,0.00,VWS V14.01,2013-02-15 18:04:00,
2013-02-15 10:09:00,42.1,17.7,30.36,WNW,287,0.0,0.0,37,0.00,,SKC,0.00,VWS V14.01,2013-02-15 18:09:00,
2013-02-15 10:14:00,42.4,16.1,30.36,WNW,287,0.0,0.0,34,0.00,,SKC,0.00,VWS V14.01,2013-02-15 18:14:00,
2013-02-15 10:19:00,42.8,15.7,30.36,NW,315,0.0,0.0,33,0.00,,SKC,0.00,VWS V14.01,2013-02-15 18:19:00,
2013-02-15 10:24:00,43.0,15.9,30.33,WNW,293,0.0,0.0,33,0.00,,SKC,0.00,VWS V14.01,2013-02-15 18:24:00,
2013-02-15 10:29:00,43.3,16.2,30.33,West,280,0.0,0.0,33,0.00,,SKC,0.00,VWS V14.01,2013-02-15 18:29:00,
2013-02-15 10:34:00,44.2,16.3,30.33,WNW,283,0.0,0.0,32,0.00,,SKC,0.00,VWS V14.01,2013-02-15 18:34:00,
2013-02-15 10:39:00,45.1,17.1,30.33,WSW,257,0.0,0.0,32,0.00,,SKC,0.00,VWS V14.01,2013-02-15 18:39:00,
2013-02-15 10:44:00,45.1,15.6,30.33,WNW,302,0.0,0.0,30,0.00,,SKC,0.00,VWS V14.01,2013-02-15 18:44:00,
2013-02-15 10:49:00,45.7,16.8,30.33,WNW,291,3.1,3.6,31,0.00,,SKC,0.00,VWS V14.01,2013-02-15 18:49:00,
2013-02-15 10:54:00,46.8,16.2,30.33,WNW,298,4.0,4.0,29,0.00,,SKC,0.00,VWS V14.01,2013-02-15 18:54:00,
2013-02-15 10:59:00,47.1,16.5,30.33,SW,232,2.7,3.1,29,0.00,,SKC,0.00,VWS V14.01,2013-02-15 18:59:00,
2013-02-15 11:04:00,47.3,16.7,30.33,WSW,249,0.0,0.0,29,0.00,,SKC,0.00,VWS V14.01,2013-02-15 19:04:00,
2013-02-15 11:09:00,47.7,17.0,30.33,NW,310,0.0,0.0,29,0.00,,SKC,0.00,VWS V14.01,2013-02-15 19:09:00,
2013-02-15 11:14:00,47.7,16.2,30.33,North,4,0.0,0.0,28,0.00,,SKC,0.00,VWS V14.01,2013-02-15 19:14:00,
2013-02-15 11:19:00,48.0,16.5,30.33,North,5,0.0,0.0,28,0.00,,SKC,0.00,VWS V14.01,2013-02-15 19:19:00,
2013-02-15 11:24:00,49.8,17.2,30.33,WNW,298,5.4,5.4,27,0.00,,SKC,0.00,VWS V14.01,2013-02-15 19:24:00,
2013-02-15 11:29:00,50.0,17.4,30.33,NW,313,2.7,3.6,27,0.00,,SKC,0.00,VWS V14.01,2013-02-15 19:29:00,
2013-02-15 11:34:00,50.4,17.7,30.33,ESE,122,0.0,0.0,27,0.00,,SKC,0.00,VWS V14.01,2013-02-15 19:34:00,
2013-02-15 11:39:00,50.4,17.7,30.33,WNW,302,6.3,6.3,27,0.00,,SKC,0.00,VWS V14.01,2013-02-15 19:39:00,
2013-02-15 11:44:00,50.5,17.8,30.33,WNW,294,3.1,3.6,27,0.00,,SKC,0.00,VWS V14.01,2013-02-15 19:44:00,
2013-02-15 11:49:00,50.5,17.0,30.33,WNW,290,5.4,6.3,26,0.00,,SKC,0.00,VWS V14.01,2013-02-15 19:49:00,
2013-02-15 11:54:00,51.3,17.6,30.33,WNW,287,3.1,4.9,26,0.00,,SKC,0.00,VWS V14.01,2013-02-15 19:54:00,
2013-02-15 11:59:00,52.3,18.5,30.33,NW,322,2.7,2.7,26,0.00,,SKC,0.00,VWS V14.01,2013-02-15 19:59:00,
2013-02-15 12:04:00,52.3,18.5,30.33,NW,311,4.0,4.0,26,0.00,,SKC,0.00,VWS V14.01,2013-02-15 20:04:00,
2013-02-15 12:09:00,52.3,18.5,30.33,WNW,291,3.1,3.1,26,0.00,,SKC,0.00,VWS V14.01,2013-02-15 20:09:00,
2013-02-15 12:14:00,53.2,19.3,30.33,West,276,4.9,4.9,26,0.00,,SKC,0.00,VWS V14.01,2013-02-15 20:14:00,
2013-02-15 12:19:00,53.4,19.4,30.33,NW,324,3.6,3.6,26,0.00,,SKC,0.00,VWS V14.01,2013-02-15 20:19:00,
2013-02-15 12:24:00,53.4,19.4,30.33,WSW,241,0.0,0.0,26,0.00,,SKC,0.00,VWS V14.01,2013-02-15 20:24:00,
2013-02-15 12:29:00,54.0,19.0,30.33,NW,313,0.0,0.0,25,0.00,,SKC,0.00,VWS V14.01,2013-02-15 20:29:00,
2013-02-15 12:34:00,54.5,19.4,30.33,WNW,296,4.0,4.9,25,0.00,,SKC,0.00,VWS V14.01,2013-02-15 20:34:00,
2013-02-15 12:39:00,54.9,17.8,30.30,West,267,4.0,4.9,23,0.00,,SKC,0.00,VWS V14.01,2013-02-15 20:39:00,
2013-02-15 12:44:00,55.0,17.9,30.30,West,275,4.0,4.0,23,0.00,,SKC,0.00,VWS V14.01,2013-02-15 20:44:00,
2013-02-15 12:49:00,55.6,17.4,30.30,NW,314,4.0,4.0,22,0.00,,SKC,0.00,VWS V14.01,2013-02-15 20:49:00,
2013-02-15 12:54:00,55.8,17.5,30.30,WNW,283,5.4,5.4,22,0.00,,SKC,0.00,VWS V14.01,2013-02-15 20:54:00,
2013-02-15 12:59:00,55.6,17.4,30.30,WSW,249,3.1,3.1,22,0.00,,SKC,0.00,VWS V14.01,2013-02-15 20:59:00,
2013-02-15 13:04:00,55.8,17.5,30.30,WNW,286,5.8,5.8,22,0.00,,SKC,0.00,VWS V14.01,2013-02-15 21:04:00,
2013-02-15 13:09:00,56.3,18.0,30.30,WNW,285,2.7,3.1,22,0.00,,SKC,0.00,VWS V14.01,2013-02-15 21:09:00,
2013-02-15 13:14:00,56.1,17.8,30.30,SW,235,0.0,0.0,22,0.00,,SKC,0.00,VWS V14.01,2013-02-15 21:14:00,
2013-02-15 13:19:00,56.7,18.3,30.30,WSW,247,3.1,3.1,22,0.00,,SKC,0.00,VWS V14.01,2013-02-15 21:19:00,
2013-02-15 13:24:00,57.0,18.6,30.30,NNW,335,0.0,0.0,22,0.00,,SKC,0.00,VWS V14.01,2013-02-15 21:24:00,
2013-02-15 13:29:00,57.6,19.0,30.30,SW,235,0.0,0.0,22,0.00,,SKC,0.00,VWS V14.01,2013-02-15 21:29:00,
2013-02-15 13:34:00,57.4,15.5,30.30,West,270,2.2,4.0,19,0.00,,SKC,0.00,VWS V14.01,2013-02-15 21:34:00,
2013-02-15 13:39:00,56.8,16.2,30.30,WNW,301,0.0,0.0,20,0.00,,SKC,0.00,VWS V14.01,2013-02-15 21:39:00,
2013-02-15 13:44:00,57.6,15.6,30.30,West,267,4.0,4.0,19,0.00,,SKC,0.00,VWS V14.01,2013-02-15 21:44:00,
2013-02-15 13:48:00,58.1,16.1,30.30,West,269,0.0,3.6,19,0.00,,SKC,0.00,VWS V14.01,2013-02-15 21:48:00,
2013-02-15 13:53:00,59.2,17.0,30.30,NW,317,5.4,5.4,19,0.00,,SKC,0.00,VWS V14.01,2013-02-15 21:53:00,
2013-02-15 13:59:00,58.8,16.7,30.30,WNW,291,3.1,3.1,19,0.00,,SKC,0.00,VWS V14.01,2013-02-15 21:59:00,
2013-02-15 14:04:00,58.3,16.2,30.30,NW,311,6.3,6.3,19,0.00,,SKC,0.00,VWS V14.01,2013-02-15 22:04:00,
2013-02-15 14:09:00,58.1,16.1,30.30,NNW,329,5.4,8.1,19,0.00,,SKC,0.00,VWS V14.01,2013-02-15 22:09:00,
2013-02-15 14:14:00,58.1,16.1,30.30,North,0,2.2,2.2,19,0.00,,SKC,0.00,VWS V14.01,2013-02-15 22:14:00,
2013-02-15 14:19:00,58.1,16.1,30.30,North,353,4.0,4.5,19,0.00,,SKC,0.00,VWS V14.01,2013-02-15 22:19:00,
2013-02-15 14:24:00,57.4,15.5,30.30,SE,125,0.0,0.0,19,0.00,,SKC,0.00,VWS V14.01,2013-02-15 22:24:00,
2013-02-15 14:28:00,57.2,15.3,30.30,WNW,284,0.0,0.0,19,0.00,,SKC,0.00,VWS V14.01,2013-02-15 22:28:00,
2013-02-15 14:33:00,56.7,16.1,30.30,WNW,283,0.0,0.0,20,0.00,,SKC,0.00,VWS V14.01,2013-02-15 22:33:00,
2013-02-15 14:38:00,56.5,15.9,30.30,West,265,0.0,0.0,20,0.00,,SKC,0.00,VWS V14.01,2013-02-15 22:38:00,
2013-02-15 14:43:00,56.1,15.6,30.30,WSW,238,4.0,4.9,20,0.00,,SKC,0.00,VWS V14.01,2013-02-15 22:43:00,
2013-02-15 14:48:00,55.8,15.3,30.30,WNW,286,2.7,2.7,20,0.00,,SKC,0.00,VWS V14.01,2013-02-15 22:48:00,
2013-02-15 14:53:00,55.6,15.2,30.30,WNW,296,0.0,0.0,20,0.00,,SKC,0.00,VWS V14.01,2013-02-15 22:53:00,
2013-02-15 14:58:00,55.6,15.2,30.30,NW,309,4.0,5.8,20,0.00,,SKC,0.00,VWS V14.01,2013-02-15 22:58:00,
2013-02-15 15:03:00,55.9,15.5,30.30,North,357,4.0,4.0,20,0.00,,SKC,0.00,VWS V14.01,2013-02-15 23:03:00,
2013-02-15 15:08:00,56.5,15.9,30.30,WNW,293,3.6,3.6,20,0.00,,SKC,0.00,VWS V14.01,2013-02-15 23:08:00,
2013-02-15 15:13:00,56.3,15.8,30.30,SW,229,2.7,4.0,20,0.00,,SKC,0.00,VWS V14.01,2013-02-15 23:13:00,
2013-02-15 15:18:00,55.9,15.5,30.30,NW,305,4.9,5.8,20,0.00,,SKC,0.00,VWS V14.01,2013-02-15 23:18:00,
2013-02-15 15:23:00,55.9,15.5,30.30,SSW,193,2.7,2.7,20,0.00,,SKC,0.00,VWS V14.01,2013-02-15 23:23:00,
2013-02-15 15:28:00,56.3,15.8,30.30,WSW,239,3.1,4.0,20,0.00,,SKC,0.00,VWS V14.01,2013-02-15 23:28:00,
2013-02-15 15:33:00,56.1,15.6,30.30,SW,234,0.0,0.0,20,0.00,,SKC,0.00,VWS V14.01,2013-02-15 23:33:00,
2013-02-15 15:38:00,56.3,15.8,30.30,NW,312,3.6,4.9,20,0.00,,SKC,0.00,VWS V14.01,2013-02-15 23:38:00,
2013-02-15 15:43:00,56.7,16.1,30.30,WNW,289,3.1,4.0,20,0.00,,SKC,0.00,VWS V14.01,2013-02-15 23:43:00,
2013-02-15 15:48:00,57.0,16.4,30.30,NNW,330,0.0,0.0,20,0.00,,SKC,0.00,VWS V14.01,2013-02-15 23:48:00,
2013-02-15 15:53:00,57.9,15.9,30.30,NW,307,2.7,4.9,19,0.00,,SKC,0.00,VWS V14.01,2013-02-15 23:53:00,
2013-02-15 15:58:00,58.5,16.4,30.30,NW,306,4.0,4.0,19,0.00,,SKC,0.00,VWS V14.01,2013-02-15 23:58:00,
2013-02-15 16:03:00,58.6,16.5,30.30,WNW,301,0.0,0.0,19,0.00,,SKC,0.00,VWS V14.01,2013-02-16 00:03:00,
2013-02-15 16:08:00,58.8,16.7,30.30,West,270,3.1,3.6,19,0.00,,SKC,0.00,VWS V14.01,2013-02-16 00:08:00,
2013-02-15 16:13:00,59.2,17.0,30.30,WNW,291,3.1,3.1,19,0.00,,SKC,0.00,VWS V14.01,2013-02-16 00:13:00,
2013-02-15 16:18:00,58.8,16.7,30.30,West,280,3.6,3.6,19,0.00,,SKC,0.00,VWS V14.01,2013-02-16 00:18:00,
2013-02-15 16:23:00,58.6,16.5,30.30,WNW,301,4.0,5.4,19,0.00,,SKC,0.00,VWS V14.01,2013-02-16 00:23:00,
2013-02-15 16:28:00,58.1,16.1,30.30,West,272,0.0,2.2,19,0.00,,SKC,0.00,VWS V14.01,2013-02-16 00:28:00,
2013-02-15 16:33:00,57.9,15.9,30.30,West,274,5.4,5.4,19,0.00,,SKC,0.00,VWS V14.01,2013-02-16 00:33:00,
2013-02-15 16:38:00,57.6,15.6,30.30,West,278,3.1,3.6,19,0.00,,SKC,0.00,VWS V14.01,2013-02-16 00:38:00,
2013-02-15 16:43:00,57.2,15.3,30.30,West,268,3.1,6.3,19,0.00,,SKC,0.00,VWS V14.01,2013-02-16 00:43:00,
2013-02-15 16:48:00,56.7,16.1,30.30,West,259,2.7,3.1,20,0.00,,SKC,0.00,VWS V14.01,2013-02-16 00:48:00,
2013-02-15 16:53:00,55.8,15.3,30.30,West,270,2.2,3.6,20,0.00,,SKC,0.00,VWS V14.01,2013-02-16 00:53:00,
2013-02-15 16:58:00,54.1,14.0,30.30,WSW,256,2.7,2.7,20,0.00,,SKC,0.00,VWS V14.01,2013-02-16 00:58:00,
2013-02-15 17:03:00,52.5,13.7,30.30,West,274,0.0,3.1,21,0.00,,SKC,0.00,VWS V14.01,2013-02-16 01:03:00,
2013-02-15 17:08:00,50.9,12.4,30.30,West,274,0.0,0.0,21,0.00,,SKC,0.00,VWS V14.01,2013-02-16 01:08:00,
2013-02-15 17:13:00,49.8,11.5,30.30,West,272,0.0,0.0,21,0.00,,SKC,0.00,VWS V14.01,2013-02-16 01:13:00,
2013-02-15 17:18:00,48.9,10.7,30.30,West,271,0.0,0.0,21,0.00,,SKC,0.00,VWS V14.01,2013-02-16 01:18:00,
2013-02-15 17:23:00,47.8,12.8,30.30,South,190,0.0,0.0,24,0.00,,SKC,0.00,VWS V14.01,2013-02-16 01:23:00,
2013-02-15 17:28:00,46.8,11.9,30.30,South,190,0.0,0.0,24,0.00,,SKC,0.00,VWS V14.01,2013-02-16 01:28:00,
2013-02-15 17:33:00,45.1,11.4,30.30,South,190,0.0,0.0,25,0.00,,SKC,0.00,VWS V14.01,2013-02-16 01:33:00,
2013-02-15 17:38:00,44.4,13.4,30.30,South,190,0.0,0.0,28,0.00,,SKC,0.00,VWS V14.01,2013-02-16 01:38:00,
2013-02-15 17:43:00,43.7,12.8,30.30,South,190,0.0,0.0,28,0.00,,SKC,0.00,VWS V14.01,2013-02-16 01:43:00,
2013-02-15 17:48:00,42.8,12.0,30.30,South,190,0.0,0.0,28,0.00,,SKC,0.00,VWS V14.01,2013-02-16 01:48:00,
2013-02-15 17:53:00,42.8,12.0,30.30,South,190,0.0,0.0,28,0.00,,SKC,0.00,VWS V14.01,2013-02-16 01:53:00,
2013-02-15 17:58:00,42.8,12.8,30.30,South,190,0.0,0.0,29,0.00,,SKC,0.00,VWS V14.01,2013-02-16 01:58:00,
2013-02-15 18:03:00,42.3,12.3,30.30,South,190,0.0,0.0,29,0.00,,SKC,0.00,VWS V14.01,2013-02-16 02:03:00,
2013-02-15 18:08:00,41.5,11.7,30.30,South,190,0.0,0.0,29,0.00,,SKC,0.00,VWS V14.01,2013-02-16 02:08:00,
2013-02-15 18:13:00,40.6,11.6,30.30,South,190,0.0,0.0,30,0.00,,SKC,0.00,VWS V14.01,2013-02-16 02:13:00,
2013-02-15 18:18:00,40.3,11.3,30.30,South,190,0.0,0.0,30,0.00,,SKC,0.00,VWS V14.01,2013-02-16 02:18:00,
2013-02-15 18:23:00,39.7,10.9,30.30,South,190,0.0,0.0,30,0.00,,SKC,0.00,VWS V14.01,2013-02-16 02:23:00,
2013-02-15 18:28:00,39.7,11.6,30.30,South,190,0.0,0.0,31,0.00,,SKC,0.00,VWS V14.01,2013-02-16 02:28:00,
2013-02-15 18:33:00,39.9,11.0,30.30,South,190,0.0,0.0,30,0.00,,SKC,0.00,VWS V14.01,2013-02-16 02:33:00,
2013-02-15 18:38:00,39.4,11.3,30.30,South,190,0.0,0.0,31,0.00,,SKC,0.00,VWS V14.01,2013-02-16 02:38:00,
2013-02-15 18:43:00,39.0,11.0,30.30,South,190,0.0,0.0,31,0.00,,SKC,0.00,VWS V14.01,2013-02-16 02:43:00,
2013-02-15 18:48:00,38.5,10.5,30.30,South,190,0.0,0.0,31,0.00,,SKC,0.00,VWS V14.01,2013-02-16 02:48:00,
2013-02-15 18:53:00,38.3,11.0,30.30,South,190,0.0,0.0,32,0.00,,SKC,0.00,VWS V14.01,2013-02-16 02:53:00,
2013-02-15 18:58:00,38.7,11.4,30.30,South,190,0.0,0.0,32,0.00,,SKC,0.00,VWS V14.01,2013-02-16 02:58:00,
2013-02-15 19:03:00,39.0,11.7,30.30,SSE,160,0.0,0.0,32,0.00,,SKC,0.00,VWS V14.01,2013-02-16 03:03:00,
2013-02-15 19:08:00,38.7,11.4,30.30,SSE,160,0.0,0.0,32,0.00,,SKC,0.00,VWS V14.01,2013-02-16 03:08:00,
2013-02-15 19:13:00,38.5,11.2,30.30,SSE,160,0.0,0.0,32,0.00,,SKC,0.00,VWS V14.01,2013-02-16 03:13:00,
2013-02-15 19:18:00,37.8,10.6,30.30,SSE,160,0.0,0.0,32,0.00,,SKC,0.00,VWS V14.01,2013-02-16 03:18:00,
2013-02-15 19:23:00,37.6,11.1,30.30,SSE,160,0.0,0.0,33,0.00,,SKC,0.00,VWS V14.01,2013-02-16 03:23:00,
2013-02-15 19:28:00,37.6,11.8,30.30,SSE,160,0.0,0.0,34,0.00,,SKC,0.00,VWS V14.01,2013-02-16 03:28:00,
2013-02-15 19:33:00,37.2,11.4,30.30,SSE,160,0.0,0.0,34,0.00,,SKC,0.00,VWS V14.01,2013-02-16 03:33:00,
2013-02-15 19:38:00,36.7,11.6,30.30,ESE,123,0.0,0.0,35,0.00,,SKC,0.00,VWS V14.01,2013-02-16 03:38:00,
2013-02-15 19:43:00,36.1,13.0,30.30,SE,124,3.1,3.1,38,0.00,,SKC,0.00,VWS V14.01,2013-02-16 03:43:00,
2013-02-15 19:48:00,36.3,14.3,30.30,SE,128,3.1,3.1,40,0.00,,SKC,0.00,VWS V14.01,2013-02-16 03:48:00,
2013-02-15 19:53:00,36.9,14.8,30.30,SE,127,2.7,3.1,40,0.00,,SKC,0.00,VWS V14.01,2013-02-16 03:53:00,
2013-02-15 19:58:00,37.4,14.7,30.30,SE,133,3.6,4.0,39,0.00,,SKC,0.00,VWS V14.01,2013-02-16 03:58:00,
2013-02-15 20:03:00,37.6,14.9,30.30,SE,141,4.0,4.0,39,0.00,,SKC,0.00,VWS V14.01,2013-02-16 04:03:00,
2013-02-15 20:08:00,37.6,14.9,30.30,SE,145,2.7,4.0,39,0.00,,SKC,0.00,VWS V14.01,2013-02-16 04:08:00,
2013-02-15 20:13:00,37.6,14.9,30.30,SE,134,2.2,2.7,39,0.00,,SKC,0.00,VWS V14.01,2013-02-16 04:13:00,
2013-02-15 20:18:00,37.4,14.7,30.30,SE,125,3.6,3.6,39,0.00,,SKC,0.00,VWS V14.01,2013-02-16 04:18:00,
2013-02-15 20:23:00,37.4,14.7,30.30,ESE,116,4.0,5.4,39,0.00,,SKC,0.00,VWS V14.01,2013-02-16 04:23:00,
2013-02-15 20:28:00,37.4,14.7,30.30,ESE,121,2.7,3.1,39,0.00,,SKC,0.00,VWS V14.01,2013-02-16 04:28:00,
2013-02-15 20:33:00,37.4,14.7,30.30,SE,127,3.1,3.6,39,0.00,,SKC,0.00,VWS V14.01,2013-02-16 04:33:00,
2013-02-15 20:38:00,37.0,15.0,30.30,SE,130,3.1,3.1,40,0.00,,SKC,0.00,VWS V14.01,2013-02-16 04:38:00,
2013-02-15 20:43:00,36.7,14.6,30.30,SE,130,0.0,2.2,40,0.00,,SKC,0.00,VWS V14.01,2013-02-16 04:43:00,
2013-02-15 20:48:00,36.3,14.3,30.30,SE,130,0.0,0.0,40,0.00,,SKC,0.00,VWS V14.01,2013-02-16 04:48:00,
2013-02-15 20:53:00,36.3,14.3,30.30,SE,129,0.0,0.0,40,0.00,,SKC,0.00,VWS V14.01,2013-02-16 04:53:00,
2013-02-15 20:58:00,36.1,14.7,30.30,ESE,115,0.0,0.0,41,0.00,,SKC,0.00,VWS V14.01,2013-02-16 04:58:00,
2013-02-15 21:00:00,36.1,14.7,30.30,ESE,111,0.0,0.0,41,0.00,,SKC,0.00,VWS V14.01,2013-02-16 05:00:00,
2013-02-15 21:05:00,36.5,15.1,30.30,SE,129,0.0,0.0,41,0.00,,SKC,0.00,VWS V14.01,2013-02-16 05:05:00,
2013-02-15 21:10:00,36.7,15.2,30.30,SE,125,2.7,3.1,41,0.00,,SKC,0.00,VWS V14.01,2013-02-16 05:10:00,
2013-02-15 21:15:00,36.3,14.3,30.30,SE,124,3.1,3.1,40,0.00,,SKC,0.00,VWS V14.01,2013-02-16 05:15:00,
2013-02-15 21:20:00,36.0,14.6,30.30,SE,125,0.0,0.0,41,0.00,,SKC,0.00,VWS V14.01,2013-02-16 05:20:00,
2013-02-15 21:23:00,35.6,14.2,30.30,SE,125,0.0,0.0,41,0.00,,SKC,0.00,VWS V14.01,2013-02-16 05:23:00,
2013-02-15 21:28:00,35.2,14.5,30.30,SE,124,0.0,0.0,42,0.00,,SKC,0.00,VWS V14.01,2013-02-16 05:28:00,
2013-02-15 21:33:00,35.4,15.2,30.30,SE,125,4.0,4.0,43,0.00,,SKC,0.00,VWS V14.01,2013-02-16 05:33:00,
2013-02-15 21:38:00,35.8,14.9,30.30,ESE,113,3.6,4.0,42,0.00,,SKC,0.00,VWS V14.01,2013-02-16 05:38:00,
2013-02-15 21:43:00,36.3,14.9,30.30,SE,136,3.6,5.4,41,0.00,,SKC,0.00,VWS V14.01,2013-02-16 05:43:00,
2013-02-15 21:48:00,36.3,14.9,30.30,SE,128,5.4,6.3,41,0.00,,SKC,0.00,VWS V14.01,2013-02-16 05:48:00,
2013-02-15 21:53:00,36.1,14.7,30.30,SE,127,4.0,4.0,41,0.00,,SKC,0.00,VWS V14.01,2013-02-16 05:53:00,
2013-02-15 21:58:00,36.1,14.7,30.30,SE,128,3.1,4.0,41,0.00,,SKC,0.00,VWS V14.01,2013-02-16 05:58:00,
2013-02-15 22:03:00,36.1,14.7,30.30,SE,130,3.1,4.0,41,0.00,,SKC,0.00,VWS V14.01,2013-02-16 06:03:00,
2013-02-15 22:08:00,36.0,14.6,30.30,SE,127,3.1,3.1,41,0.00,,SKC,0.00,VWS V14.01,2013-02-16 06:08:00,
2013-02-15 22:13:00,35.8,14.4,30.30,ESE,115,0.0,0.0,41,0.00,,SKC,0.00,VWS V14.01,2013-02-16 06:13:00,
2013-02-15 22:18:00,35.6,14.2,30.30,ESE,119,2.7,3.1,41,0.00,,SKC,0.00,VWS V14.01,2013-02-16 06:18:00,
2013-02-15 22:23:00,35.4,14.6,30.30,ESE,123,0.0,0.0,42,0.00,,SKC,0.00,VWS V14.01,2013-02-16 06:23:00,
2013-02-15 22:28:00,34.9,14.1,30.30,ESE,123,0.0,0.0,42,0.00,,SKC,0.00,VWS V14.01,2013-02-16 06:28:00,
2013-02-15 22:33:00,34.5,13.8,30.30,ESE,120,0.0,0.0,42,0.00,,SKC,0.00,VWS V14.01,2013-02-16 06:33:00,
2013-02-15 22:38:00,34.3,14.7,30.30,East,93,0.0,0.0,44,0.00,,SKC,0.00,VWS V14.01,2013-02-16 06:38:00,
2013-02-15 22:42:00,35.1,14.8,30.30,SE,135,4.0,5.8,43,0.00,,SKC,0.00,VWS V14.01,2013-02-16 06:42:00,
2013-02-15 22:47:00,35.1,14.3,30.30,ESE,108,0.0,0.0,42,0.00,,SKC,0.00,VWS V14.01,2013-02-16 06:47:00,
2013-02-15 22:52:00,35.1,14.8,30.30,SE,137,3.6,4.0,43,0.00,,SKC,0.00,VWS V14.01,2013-02-16 06:52:00,
2013-02-15 22:57:00,35.2,14.5,30.30,SE,140,3.1,4.9,42,0.00,,SKC,0.00,VWS V14.01,2013-02-16 06:57:00,
2013-02-15 23:02:00,35.4,14.6,30.30,SE,137,4.9,4.9,42,0.00,,SKC,0.00,VWS V14.01,2013-02-16 07:02:00,
2013-02-15 23:07:00,35.2,14.5,30.30,SE,128,2.7,2.7,42,0.00,,SKC,0.00,VWS V14.01,2013-02-16 07:07:00,
2013-02-15 23:12:00,34.7,14.0,30.30,SE,128,0.0,0.0,42,0.00,,SKC,0.00,VWS V14.01,2013-02-16 07:12:00,
2013-02-15 23:17:00,33.8,13.1,30.30,SW,232,0.0,0.0,42,0.00,,SKC,0.00,VWS V14.01,2013-02-16 07:17:00,
2013-02-15 23:22:00,33.1,13.6,30.30,SW,232,0.0,0.0,44,0.00,,SKC,0.00,VWS V14.01,2013-02-16 07:22:00,
2013-02-15 23:27:00,32.5,13.6,30.30,SE,127,0.0,2.2,45,0.00,,SKC,0.00,VWS V14.01,2013-02-16 07:27:00,
2013-02-15 23:32:00,32.5,16.0,30.30,SE,142,5.4,6.3,50,0.00,,SKC,0.00,VWS V14.01,2013-02-16 07:32:00,
2013-02-15 23:37:00,33.1,15.5,30.30,SE,134,4.0,4.0,48,0.00,,SKC,0.00,VWS V14.01,2013-02-16 07:37:00,
2013-02-15 23:42:00,33.4,15.4,30.30,SE,132,5.8,5.8,47,0.00,,SKC,0.00,VWS V14.01,2013-02-16 07:42:00,
2013-02-15 23:47:00,33.4,14.9,30.30,SE,137,3.6,4.9,46,0.00,,SKC,0.00,VWS V14.01,2013-02-16 07:47:00,
2013-02-15 23:52:00,33.4,14.9,30.30,SE,129,6.3,8.1,46,0.00,,SKC,0.00,VWS V14.01,2013-02-16 07:52:00,
2013-02-15 23:57:00,33.6,14.6,30.30,SE,135,6.3,6.3,45,0.00,,SKC,0.00,VWS V14.01,2013-02-16 07:57:00,